2019-071Q (45125 NORAD) Tracking and Keplerian Element Data

This shows tracking and keplerian element data for the satellite.

Feedback or suggestion? Click here.




ElementValue
Catalog45125
Name2019-071Q
Epoch Orbit2470
Epoch Day193.57591352
Epoch Year2020
RAAN246.7629
Inclination51.6434
Eccentricity0.0010984
Argument of Perigee111.3913
Mean Anonmoly248.8242
Mean Motion15.33538781
Decay Rate3.83E-06
L11 45125U 19071Q 20193.57591352 .00000383 00000-0 23175-4 0 9993
L22 45125 51.6434 246.7629 0010984 111.3913 248.8242 15.33538781 24706

Live tracking and technical data element details for 2019-071Q (NORAD 45125). 2019-071Q can be tracked NOW for your location showing map with azimuth and elevation plus other details from your city location.

Track the satellite on the map from your city or location and see movement details for azimuth, elevation, latitude, longitude, range, height, and movement on the map or in text.







IsCatalogInMostPopularTable: catalog: 45125, numindb: 29
Update: records affected: 1



GetName: 45125 2019-071Q

Hit Count: updated at: Mon, 13 Jul 2020 05:03:01 GMT